Location: 22
(39.7117°N, 89.5929°W)
Time: 01:06:56
(UTC-06:00)

Hubble Space Telescope - Visible Passes

Search period start: 06 December 2022 00:00
Search period end: 16 December 2022 00:00
Orbit: 530 x 534 km, 28.5° (Epoch: 05 December)

Date Brightness Start Highest point End Pass type
(mag) Time Alt. Az. Time Alt. Az. Time Alt. Az.
07 Dec 3.6 05:39:29 10° S 05:40:40 11° SSE 05:41:52 10° SSE visible
08 Dec 3.4 05:26:09 10° SSW 05:27:54 12° SSE 05:29:39 10° SE visible
09 Dec 3.3 05:13:01 10° SSW 05:15:07 14° S 05:17:13 10° SE visible
10 Dec 3.1 05:01:20 14° S 05:02:20 15° S 05:04:40 10° SE visible
11 Dec 3.1 04:49:32 16° S 04:49:34 16° S 04:52:04 10° SE visible
11 Dec 3.2 06:27:27 10° SW 06:29:55 16° S 06:32:23 10° SSE visible
12 Dec 3.2 04:37:42 15° SSE 04:37:42 15° SSE 04:39:23 10° SE visible
12 Dec 3.2 06:14:51 10° SW 06:17:08 15° S 06:19:26 10° SSE visible
13 Dec 3.5 04:25:48 13° SSE 04:25:48 13° SSE 04:26:40 10° SE visible
13 Dec 3.2 06:02:18 10° SW 06:04:21 13° S 06:06:24 10° SSE visible
14 Dec 3.8 04:13:53 10° SE 04:13:53 10° SE 04:13:54 10° SE visible
14 Dec 3.2 05:49:52 10° SW 05:51:33 12° SSW 05:53:14 10° S visible
15 Dec 3.2 05:37:40 10° SSW 05:38:44 11° SSW 05:39:48 10° S visible
